Location: ???????
(38.3360°N, 23.6977°E)
Time: 22:56:43
(UTC+00:00)

Cosmos 44 Rocket - Pass Details

Date: 17 November 2025
Orbit: 637 x 741 km, 65.1° (Epoch: 09 December)

Event Time Altitude Azimuth Distance (km) Brightness Sun altitude
Rises 15:55:48 0° 210° (SSW) 2,960 7.3 -9.0°
Reaches altitude 10° 15:58:04 10° 210° (SSW) 2,066 6.5 -9.4°
Maximum altitude 16:02:46 88° 301° (WNW) 679 3.3 -10.3°
Drops below altitude 10° 16:07:39 10° 30° (NNE) 2,145 5.4 -11.2°
Enters shadow 16:08:29 - 30° (NNE) 2,475 5.7 -11.4°
